Probability
0 0 0 0 0 0 0 0 0 0 0 0 0 0 0 0 0 0 0 0 0 0 0 0 0 0 0 0 0 0 0 0 0 0 0 0 0 0 0 0 0 0 0
0 0 0 0 0 0 0 0 0 0 0 0 0 0 0 0 0 0 0 0 0 0 0 0 0 0 0 0 0 0 0 0 0 0 0 0 0 0 0 0 0 0 0
0 0 0 0 0 0 0 0 0 0 0 0 0 0 0 0 0 0 0 0 0 0 0 0 0 0 0 0 0 0 0 0 0 0 0 0 0 0 0 0 0 0 0
0 0 0 0 0 0 0 0 0 0 0 0 0 0 0 0 0 0 0 0 0 0 0 0 0 0 0 0 0 0 0 0 0 0 0 0 0 0 0 0 0 0 0
0 0 0 0 0 0 0 0 0 0 0 0 0 0 0 0 0 0 0 0 0 0 0 0 0 0 0 0 0 0 0 0 0 0 0 0 0 0 0 0 0 0 0
0 0 0 0 0 0 0 0 0 0 0 0 0 0 0 0 0 0 0 0 0 0 0 0 0 0 0 0 0 0 0 0 0 0 0 0 0 0 0 0 0 0 0
0 0 0 0 0 0 0 0 0 0 0 0 0 0 0 0 0 0 0 0 0 0 0 0 0 0 0 0 0 0 0 0 0 0 0 0 0 0 0 0 0 0 0
0 0 0 0 0 0 0 0 0 0 0 0 0 0 0 0 0 0 0 0 0 0 0 0 0 0 0 0 0 0 0 0 0 0 0 0 0 0 0 0 0 0 0
0 0 0 0 0 0 0 0 0 0 0 0 0 0 0 0 0 0 0 0 0 0 0 0 0 0 0 0 0 0 0 0 0 0 0 0 0 0 0 0 0 0 0
0 0 0 0 0 0 0 0 0 0 0 0 0 0 0 0 0 0 0 0 0 0 0 0 0 0 0 0 0 0 0 0 0 0 0 0 0 0 0 0 0 0 0
0 0 0 0 0 0 0 0 0 0 0 0 0 0 0 0 0 0 0 0 0 0 0 0 0 0 0 0 0 0 0 0 0 0 0 0 0 0 0 0 0 0 0
0 0 0 0 0 0 0 0 0 0 0 0 0 0 0 0 0 0 0 0 0 0 0 0 0 0 0 0 0 0 0 0 0 0 0 0 0 0 0 0 0 0 0
0 0 0 0 0 0 0 0 0 0 0 0 0 0 0 0 0 0 0 0 0 0 0 0 0 0 0 0 0 0 0 0 0 0 0 0 0 0 0 0 0 0 0
0 0 0 0 0 0 0 0 0 0 0 0 0 0 0 0 0 0 0 0 0 0 0 0 0 0 0 0 0 0 0 0 0 0 0 0 0 0 0 0 0 0 0
0 0 0 0 0 0 0 0 0 0 0 0 0 0 0 0 0 0 0 0 0 0 0 0 0 0 0 0 0 0 0 0 0 0 0 0 0 0 0 0 0 0 0
0 0 0 0 0 0 0 0 0 0 0 0 0 0 0 0 0 0 0 0 0 0 0 0 0 0 0 0 0 0 0 0 0 0 0 0 0 0 0 0 0 0 0
0 0 0 0 0 0 0 0 0 0 0 0 0 0 0 0 0 0 0 0 0 0 0 0 0 0 0 0 0 0 0 0 0 0 0 0 0 0 0 0 0 0 0
0 0 0 0 0 0 0 0 0 0 0 0 0 0 0 0 0 0 0 0 0 0 0 0 0 0 0 0 0 0 0 0 0 0 0 0 0 0 0 0 0 0 0
0 0 0 0 0 0 0 0 0 0 0 0 0 0 0 0 0 0 0 0 0 0 0 0 0 0 0 0 0 0 0 0 0 0 0 0 0 0 0 0 0 0 0
0 0 0 0 0 0 0 0 0 0 0 0 0 0 0 0 0 0 0 0 0 0 0 0 0 0 0 0 0 0 0 0 0 0 0 0 0 0 0 0 0 0 0
0 0 0 0 0 0 0 0 0 0 0 0 0 0 0 0 0 0 0 0 0 0 0 0 0 0 0 0 0 0 0 0 0 0 0 0 0 0 0 0 0 0 0
0 0 0 0 0 0 0 0 0 0 0 0 0 0 0 0 0 0 0 0 0 0 0 0 0 0 0 0 0 0 0 0 0 0 0 0 0 0 0 0 0 0 0
0 0 0 0 0 0 0 0 0 0 0 0 0 0 0 0 0 0 0 0 0 0 0 0 0 0 0 0 0 0 0 0 0 0 0 0 0 0 0 0 0 0 0
0 0 0 0 0 0 0 0 0 0 0 0 0 0 0 0 0 0 0 0 0 0 0 0 0 0 0 0 0 0 0 0 0 0 0 0 0 0 0 0 0 0 0
0 0 0 0 0 0 0 0 0 0 0 0 0 0 0 0 0 0 0 0 0 0 0 0 0 0 0 0 0 0 0 0 0 0 0 0 0 0 0 0 0 0 0
0 0 0 0 0 0 0 0 0 0 0 0 0 0 0 0 0 0 0 0 0 0 0 0 0 0 0 0 0 0 0 0 0 0 0 0 0 0 0 0 0 0 0
Wind_Speed
5 5 8 10 11 12 13 13 14 13 13 14 14 14 15 16 17 17 17 18 18 19 19 19 20 20 20 21 21 21 21 21 22 22 22 23 23 23 23 22 20 16 25
8 7 9 10 12 13 13 13 13 13 13 13 13 14 15 16 17 17 17 17 18 18 19 19 19 19 19 19 20 20 21 21 21 20 20 20 22 23 23 22 21 17 24
10 8 8 10 12 13 13 13 13 13 13 13 13 14 15 16 16 17 17 17 17 18 18 18 18 18 18 19 19 20 20 20 19 18 16 10 15 22 23 23 23 24 24
11 8 9 11 12 14 13 13 13 13 13 13 13 14 15 16 16 16 17 17 17 17 17 17 17 17 18 18 19 19 19 18 18 15 9 8 11 21 23 23 24 24 24
9 8 9 12 13 14 14 13 13 13 13 13 13 14 15 16 16 16 17 16 17 17 16 16 17 16 17 18 18 19 18 18 17 13 8 9 10 21 23 23 23 23 23
9 8 10 13 14 14 14 14 13 13 13 13 14 14 15 15 16 16 16 16 16 16 16 16 16 16 16 18 18 18 18 17 13 8 8 8 9 20 22 22 22 22 22
8 8 10 13 13 14 14 14 13 13 13 13 14 14 14 15 15 15 15 15 15 15 15 15 15 15 16 18 18 18 18 16 9 8 7 8 12 21 21 21 21 21 22
10 8 9 12 13 12 13 13 13 13 13 13 14 14 14 14 14 14 15 15 15 15 15 15 15 15 16 17 18 17 15 13 11 9 7 8 16 20 21 21 21 21 21
9 9 7 8 10 11 12 12 12 12 12 13 13 13 13 13 14 13 14 14 14 15 15 15 15 16 17 18 18 17 15 13 7 5 7 7 17 20 20 20 20 20 20
8 9 8 7 7 7 8 11 12 12 11 11 12 11 11 11 12 11 11 13 14 14 15 15 15 16 17 17 17 16 14 11 7 6 4 9 17 19 19 19 19 19 19
9 8 9 8 7 7 7 9 10 11 11 11 10 12 10 6 6 7 9 12 14 14 14 14 15 15 15 15 16 14 10 5 5 4 4 13 17 18 18 18 18 18 18
11 10 9 9 9 8 7 6 5 5 6 6 6 7 5 5 4 6 9 11 12 12 13 13 14 13 10 6 9 10 4 5 4 3 5 14 16 17 17 17 17 17 17
11 10 10 10 10 9 6 6 4 3 4 5 6 6 5 4 4 4 3 5 6 7 5 7 6 4 4 4 5 5 5 4 3 3 5 12 14 15 15 16 16 16 16
10 11 11 11 10 10 8 7 7 5 5 5 6 7 6 4 4 4 3 3 3 3 4 4 3 5 5 5 6 6 6 4 3 2 4 9 12 14 14 14 14 14 14
11 11 11 11 12 10 9 7 8 8 7 7 7 7 8 6 6 5 4 4 4 3 4 4 4 5 5 5 5 6 6 5 4 4 2 6 9 12 13 13 13 13 13
13 13 11 12 12 11 10 9 8 8 8 8 8 9 10 7 7 7 6 5 4 4 4 4 5 5 4 4 5 5 5 5 5 4 3 4 6 9 11 12 12 12 11
13 12 13 12 12 13 12 11 8 8 9 9 9 10 11 10 9 8 7 7 6 5 5 4 5 4 4 4 5 4 4 4 4 4 3 2 2 4 8 10 10 10 10
11 12 13 11 12 13 12 11 8 8 9 9 9 9 12 12 12 10 8 8 7 6 6 6 5 5 4 4 4 3 3 3 4 4 3 3 2 2 4 9 9 9 10
14 13 14 14 14 13 11 9 8 8 9 8 8 9 11 13 13 11 9 8 9 7 7 7 6 5 5 5 4 2 2 2 2 3 3 3 3 3 2 5 5 6 10
13 13 14 14 13 11 8 6 6 7 7 7 9 10 12 12 14 12 9 9 10 8 7 7 7 4 5 5 5 3 1 0 1 2 3 3 3 3 3 3 2 3 7
11 12 14 15 13 11 7 8 9 10 7 7 8 10 12 12 13 13 9 10 10 10 11 11 7 7 5 5 4 1 1 1 2 3 3 3 4 4 3 4 3 2 3
14 14 14 15 14 13 12 9 5 5 4 5 5 7 11 12 13 12 12 11 12 10 11 11 9 7 5 8 5 4 3 3 6 7 5 5 6 4 5 6 4 4 3
13 15 14 15 15 13 10 5 3 2 1 4 6 7 8 10 12 12 13 11 12 12 12 14 14 14 9 9 6 6 7 9 5 4 8 8 7 6 6 5 7 6 5
13 12 12 12 11 10 10 8 9 9 10 9 5 5 6 7 9 11 12 13 13 11 12 14 15 12 10 11 7 5 3 4 5 4 3 6 8 10 10 9 8 7 7
8 7 7 7 8 8 9 11 10 10 9 4 3 5 6 6 8 9 10 12 12 12 13 14 15 14 11 10 9 5 4 2 2 4 5 5 7 10 10 10 8 8 9
2 3 5 6 7 7 9 9 11 11 9 7 6 6 6 5 6 9 9 10 11 11 13 14 14 17 15 13 11 7 7 7 8 7 6 5 7 7 8 8 10 9 8
Wind_Direction
164 166 150 127 112 105 100 96 94 93 92 92 91 91 91 91 90 88 88 87 86 85 85 85 85 85 84 83 82 81 81 81 80 80 81 81 81 80 78 75 73 69 73
154 158 150 129 116 109 104 100 97 96 95 95 95 94 94 94 93 90 89 89 89 88 88 88 88 87 87 88 88 86 85 84 83 81 80 80 81 81 80 79 78 77 76
145 149 143 131 122 114 107 103 101 100 100 100 99 97 97 96 95 93 92 92 91 91 91 91 90 88 89 90 91 90 88 87 84 81 79 73 80 81 80 78 77 76 75
145 147 143 135 128 120 114 110 107 106 105 104 103 102 100 99 97 97 96 95 93 93 94 93 91 89 90 92 93 92 90 87 82 79 69 68 77 81 79 77 75 74 73
144 144 142 139 133 127 121 117 113 111 110 108 107 105 103 101 99 99 98 97 96 96 96 95 92 90 92 95 95 93 91 87 81 72 66 68 76 82 80 78 76 74 73
143 143 146 142 138 133 128 123 120 118 116 114 111 108 106 103 102 101 100 100 99 99 98 96 92 91 95 98 97 95 92 86 74 64 66 71 79 85 83 81 79 77 75
141 143 150 145 142 139 134 130 127 124 121 119 115 112 110 108 107 106 105 104 103 102 101 97 93 92 96 100 99 96 94 88 75 67 69 75 85 87 85 83 81 79 78
144 144 149 147 145 143 140 136 134 131 128 125 122 119 117 115 113 112 111 110 108 107 105 99 94 94 98 100 99 95 87 84 81 76 73 81 91 89 87 85 83 82 80
144 144 146 149 149 147 144 140 138 135 133 131 129 125 121 120 119 117 116 116 115 113 108 101 96 97 99 99 96 92 86 81 70 71 81 85 94 93 90 89 87 85 84
147 151 152 152 150 149 147 146 143 141 138 134 128 124 121 120 120 119 119 122 121 119 113 106 101 99 99 99 95 88 81 75 65 66 74 94 97 96 95 92 90 88 87
159 162 159 159 157 154 152 154 149 145 141 134 131 130 122 117 116 119 126 127 127 125 121 113 105 100 97 95 92 84 75 66 68 65 81 102 102 101 99 97 94 92 90
174 175 169 168 166 163 162 155 152 148 145 141 142 139 131 127 128 126 128 130 130 129 127 119 110 102 95 87 84 81 70 64 63 64 100 109 108 106 104 102 99 97 95
177 177 177 175 172 170 165 163 162 153 152 152 154 151 140 130 126 121 124 126 128 126 117 113 99 91 94 97 93 85 77 68 59 58 98 111 115 113 111 108 105 102 100
180 185 182 179 177 177 171 173 173 169 169 170 171 162 153 149 149 149 147 147 146 135 128 117 111 107 103 103 105 100 89 81 68 57 85 110 122 122 119 116 112 110 107
189 190 186 182 181 180 177 179 180 181 181 179 177 175 169 166 168 165 163 163 161 150 146 139 130 123 118 116 115 113 106 96 84 70 66 97 125 131 128 125 122 120 116
199 196 189 188 186 182 184 185 185 186 186 182 185 185 179 175 174 174 173 175 175 166 157 148 141 131 124 122 120 120 119 113 101 91 72 69 102 130 136 134 132 130 127
203 198 195 192 187 187 189 189 188 189 187 189 191 189 186 182 180 180 180 183 182 165 151 138 131 124 127 126 126 129 127 125 121 111 99 81 78 111 141 145 144 143 140
203 200 201 195 192 193 192 191 190 190 192 194 193 192 192 188 184 183 185 188 177 166 162 158 154 144 143 141 138 136 129 133 132 130 120 113 100 94 142 150 155 158 157
206 201 200 200 198 197 194 191 191 189 195 196 195 195 195 193 189 188 190 187 175 174 172 171 169 156 158 150 136 116 113 137 153 151 150 146 142 137 132 148 148 166 172
207 203 201 202 202 196 189 187 191 198 200 197 199 199 196 196 193 192 191 184 177 177 178 177 171 159 150 144 125 96 67 57 229 198 186 177 177 171 158 147 144 174 184
206 203 202 200 200 190 187 194 199 208 204 203 205 201 198 197 195 195 191 185 184 187 187 179 164 157 146 142 113 99 330 302 249 234 221 206 203 198 190 184 179 174 194
206 205 204 203 197 196 200 198 196 194 200 208 205 206 203 200 197 197 194 189 190 190 186 181 165 163 164 174 152 146 195 257 246 225 217 216 212 204 206 202 197 191 185
209 207 205 204 200 198 191 166 146 147 175 201 212 213 210 206 201 199 198 193 192 192 193 189 185 177 180 192 191 168 170 208 208 218 219 217 211 210 212 206 206 203 196
216 209 206 201 196 190 179 178 183 198 213 217 210 212 209 209 208 203 200 198 196 198 198 195 194 191 182 190 208 225 209 155 171 200 231 220 213 215 211 210 207 206 202
217 205 201 192 191 184 185 192 197 212 221 209 196 209 212 211 214 210 205 202 202 203 203 198 198 200 199 196 195 185 192 191 184 172 206 209 215 221 213 210 208 208 205
173 175 176 181 191 185 189 195 202 212 210 208 211 214 215 215 217 216 211 210 209 208 207 204 202 206 208 207 205 197 183 180 192 194 199 199 213 215 208 207 212 212 208